COSMOS 2143 DEB, 57725

Orbit data source: Space-Track

COSMOS 2143 DEB, 57725 is space debris in LEO originally from a launch on Thu, 16 May 1991 UTC launched from the Plesetsk Missile And Space Complex (PKMTR). Debris objects in space refer to the collection of defunct objects orbiting the Earth. Examples of debris include non-operational satellites, rocket bodies, and fragments generated from explosions, collisions, or faulty payload assembly.

Loading next visibility...
Identifier
57725, 1991-033N
Orbit
LEO
Country
Flag of CISCIS
Related business
Manufacturer
NPO PM
Mission
Spacecraft
Bus & Motor
Unknown
Mass
Unknown
Launch date (UTC)
1991-05-16 (35 years ago)
Launch vehicle
Unknown
Launch site
Plesetsk Missile And Space Complex (PKMTR)
Object type
Payload
Rocket body
Debris
Shape & HBR
Unknown shape, 1.1 m
Radar Cross Section
Medium (>0.1 m² and <1 m²)

Expand to show TLE details & history
Last TLE update: 3 weeks ago

TLE from 3 weeks ago
0 COSMOS 2143 DEB
1 57725U 91033N   26152.50297481  .00001629  00000-0  89418-2 0  9994
2 57725  82.8272 340.5194 0104967  91.0605 270.2514 12.61539084132120
Epoch: 2026-06-01T12:04Z
TLE epoch observation values (Epoch: 2026-06-01T12:04:17.023Z)
Latitude
-0.00007°
Longitude
-90.54091°
Altitude
1,419.834 km
Speed
7.151 km/s
True Right ascension
22h 42m 04s
True Declination
0° 00' 00"
Sunlit
Object was in daylight at epoch
Visualization orbit readout
Latitude
Unknown
Longitude
Unknown
Altitude
Unknown
Speed
Unknown
Apparent Right ascension
Unknown
Apparent Declination
Unknown
Sunlit
N/A
Visualization observer readout
Local Sidereal Time
23:19:31
Azimuth
Unknown
Elevation
Unknown
Doppler factor
Unknown
Orbital elements
Apogee altitude
1,495.701 km
Perigee altitude
1,332.12 km
Semi-major axis
7,792.047 km
Eccentricity
0.0105
Inclination
82.8272°
RAAN
340.5194°
Arg. of periapsis
91.0605°
True anomaly
269.0486°
Mean anomaly
270.2514°
Eccentric anomaly
269.64999°
Mean motion
3.15548 °/min
Orbital period
114.09 mins
BSTAR
0.0089418
Loading maneuver chart data...
Computing Atmospheric mass density...
Loading historical data...
Loading historical data...
Loading historical data...
Loading historical data...
Loading historical data...
Loading historical data...
Loading historical data...

Documentation

Showing up to 5 results
|